Voltar ao catálogo

STARLINK-30265

AtivoComunicaçõesVLEO
NORAD 57646·PAYLOAD·🇺🇸 United States

Lançado Aug 17, 2023 de Cape Canaveral Space Force Station

Loading…

Próximas Passagens (próximas 24 horas)

TLE

AtualizadoSource: CelesTrak SupGP

Época: Sep 14, 2026, 22:32 UTC

1 57646C 23122Q   26257.93937500  .00018318  00000+0  66364-3 0  2571
2 57646  42.9990 103.3657 0001374 272.8064 116.5910 15.27560740    13

Acompanhe STARLINK-30265 em tempo real com AllMySat

Download on the App Store